| time (UTC) | temp F | wind direction | speed MPH | gust MPH | rain 1hr in | rain 24hr in | rain mn in | humidity % | barometer mb |
| 20260504140107 | 54 | 339 | 0.0 | 0.0 | 0.00 | 0.00 | 0.00 | 67 | 1011.2 |
| 20260504081602 | 49 | 349 | 1.0 | 3.0 | 0.00 | 0.00 | 0.00 | 73 | 1010.9 |
| 20260504080105 | 50 | 349 | 1.0 | 4.0 | 0.00 | 0.00 | 0.00 | 70 | 1011.1 |
| 20260504050105 | 60 | 283 | 2.0 | 3.0 | 0.00 | 0.00 | 0.00 | 52 | 1010.9 |
| 20260504044602 | 61 | 127 | 0.0 | 6.0 | 0.00 | 0.00 | 0.00 | 48 | 1010.8 |
| 20260504043102 | 58 | 205 | 0.0 | 0.0 | 0.00 | 0.00 | 0.00 | 55 | 1010.7 |
| 20260504034602 | 56 | 19 | 0.0 | 3.0 | 0.00 | 0.00 | 0.00 | 58 | 1010.4 |
| 20260504033102 | 60 | 29 | 1.0 | 2.0 | 0.00 | 0.00 | 0.00 | 54 | 1010.3 |
| 20260504031602 | 64 | 283 | 2.0 | 3.0 | 0.00 | 0.00 | 0.00 | 40 | 1010.0 |
| 20260504024601 | 63 | 330 | 1.0 | 4.0 | 0.00 | 0.00 | 0.00 | 48 | 1009.8 |
| 20260504023105 | 66 | 354 | 0.0 | 6.0 | 0.00 | 0.00 | 0.00 | 47 | 1009.6 |
| 20260504021602 | 68 | 314 | 1.0 | 4.0 | 0.00 | 0.00 | 0.00 | 48 | 1009.6 |
| 20260504014602 | 77 | 226 | 0.0 | 0.0 | 0.00 | 0.00 | 0.00 | 40 | 1009.6 |
| 20260504013104 | 74 | 273 | 2.0 | 3.0 | 0.00 | 0.00 | 0.00 | 47 | 1009.6 |
| 20260504003102 | 78 | 111 | 3.0 | 4.0 | 0.00 | 0.00 | 0.00 | 28 | 1010.3 |
| 20260504001602 | 80 | 110 | 3.0 | 6.0 | 0.00 | 0.00 | 0.00 | 27 | 1010.3 |
| 20260503234601 | 82 | 170 | 0.0 | 7.0 | 0.00 | 0.00 | 0.00 | 24 | 1010.5 |
| 20260503233103 | 83 | 218 | 1.0 | 4.0 | 0.00 | 0.00 | 0.00 | 24 | 1010.7 |
| 20260503231605 | 83 | 108 | 3.0 | 5.0 | 0.00 | 0.00 | 0.00 | 25 | 1010.8 |
| 20260503224602 | 82 | 210 | 2.0 | 4.0 | 0.00 | 0.00 | 0.00 | 29 | 1011.2 |
| 20260503223109 | 81 | 133 | 2.0 | 5.0 | 0.00 | 0.00 | 0.00 | 28 | 1011.5 |
| 20260503221602 | 81 | 79 | 2.0 | 5.0 | 0.00 | 0.00 | 0.00 | 32 | 1011.8 |
| 20260503220104 | 80 | 152 | 0.0 | 5.0 | 0.00 | 0.00 | 0.00 | 33 | 1012.1 |
| 20260503214603 | 79 | 115 | 0.0 | 3.0 | 0.00 | 0.00 | 0.00 | 27 | 1012.4 |
| 20260503213103 | 78 | 136 | 1.0 | 7.0 | 0.00 | 0.00 | 0.00 | 33 | 1012.5 |
| 20260503204602 | 80 | 183 | 1.0 | 6.0 | 0.00 | 0.00 | 0.00 | 26 | 1013.2 |
| 20260503203102 | 80 | 115 | 2.0 | 5.0 | 0.00 | 0.00 | 0.00 | 29 | 1013.3 |
| 20260503201604 | 79 | 105 | 3.0 | 5.0 | 0.00 | 0.00 | 0.00 | 30 | 1013.4 |
| 20260503194601 | 77 | 229 | 0.0 | 4.0 | 0.00 | 0.00 | 0.00 | 35 | 1013.9 |
| 20260503193103 | 76 | 208 | 2.0 | 3.0 | 0.00 | 0.00 | 0.00 | 38 | 1014.2 |
| 20260503191601 | 74 | 229 | 0.0 | 3.0 | 0.00 | 0.00 | 0.00 | 43 | 1014.4 |
| 20260503190103 | 73 | 255 | 1.0 | 3.0 | 0.00 | 0.00 | 0.00 | 46 | 1014.6 |
| 20260503184601 | 72 | 127 | 1.0 | 3.0 | 0.00 | 0.00 | 0.00 | 45 | 1014.8 |
| 20260503183103 | 71 | 158 | 0.0 | 2.0 | 0.00 | 0.00 | 0.00 | 49 | 1015.0 |
| 20260503181603 | 71 | 167 | 1.0 | 3.0 | 0.00 | 0.00 | 0.00 | 48 | 1015.2 |
| 20260503174604 | 68 | 122 | 0.0 | 3.0 | 0.00 | 0.00 | 0.00 | 44 | 1015.4 |
| 20260503173101 | 68 | 219 | 0.0 | 2.0 | 0.00 | 0.00 | 0.00 | 45 | 1015.5 |
| 20260503171602 | 67 | 153 | 0.0 | 1.0 | 0.00 | 0.00 | 0.00 | 49 | 1015.6 |